Regional Weather Roundup
Issued by NWS Green Bay, WI

Home | Current Version | Previous Version | Graphics & Text | Print | Product List | Glossary Off
Versions: 1 2 3 4 5 6 7 8 9 10 11 12 13 14 15 16 17 18 19 20 21 22 23 24 25 26 27 28 29 30 31 32 33 34 35 36 37 38 39 40 41 42 43 44 45 46 47 48 49 50

000
ASUS43 KGRB 050611
RWRGRB

NORTH-CENTRAL AND NORTHEAST WISCONSIN REGIONAL WEATHER ROUNDUP
NATIONAL WEATHER SERVICE GREEN BAY WI
100 AM CDT WED AUG 05 2015

WIZ005-009-010>012-018-019-050700-
NORTH CENTRAL WISCONSIN

CITY           SKY/WX    TMP DP  RH WIND       PRES   REMARKS
IRONWOOD       CLEAR     46  45  93 CALM      30.06S
MANITOWISH WTR   N/A     45  45 100 CALM      30.09R FOG
ARBOR VITAE    CLEAR     52  49  92 CALM      30.09S
EAGLE RIVER    CLEAR     46  46 100 CALM      30.08F
LAND O LAKES   CLEAR     43  43  99 CALM      30.10S
RHINELANDER    MOCLDY    54  51  90 CALM      30.09S
PHILLIPS       PTCLDY    55  51  85 NE5       30.08S
ANTIGO         CLOUDY    57  53  86 NE6       30.08S
TOMAHAWK       CLOUDY    58  52  81 CALM      30.08S
MERRILL        NOT AVBL
$$

WIZ013-073-050700-
NORTHEAST WISCONSIN

CITY           SKY/WX    TMP DP  RH WIND       PRES   REMARKS
IRON MOUNTAIN  CLEAR     50  47  89 CALM      30.06S
MARINETTE      PTCLDY    55  52  88 N6        30.05S
OCONTO         CLEAR     58  58 100 CALM      30.05R
$$

WIZ017-030-035>037-045-050700-
CENTRAL WISCONSIN

CITY           SKY/WX    TMP DP  RH WIND       PRES   REMARKS
MEDFORD        CLEAR     53  51  94 NE6       30.07S
WAUSAU         CLOUDY    60  53  77 CALM      30.05S
MOSINEE        CLEAR     57  54  88 NE3       30.07S
MARSHFIELD     CLEAR     60  53  77 NE3       30.05S
WISC RAPIDS    MOCLDY    58  53  84 CALM      30.06R
STEVENS POINT  CLEAR     52  51  95 CALM      30.06S
WAUPACA        CLEAR     57  55  95 CALM      30.05S
SHAWANO        CLOUDY    65  59  81 NE5       30.06S
CLINTONVILLE   PTCLDY    55  54  94 NE5       30.05S
$$

WIZ038-039-048-051-050700-
FOX VALLEY

CITY           SKY/WX    TMP DP  RH WIND       PRES   REMARKS
NWS GREEN BAY  PTCLDY    60  56  86 NE5       30.05R
APPLETON       CLEAR     59  54  82 NE6       30.04S
OSHKOSH        CLEAR     59  53  80 CALM      30.03S
FOND DU LAC    PTCLDY    57  55  93 CALM      30.03S
$$

WIZ022-050-052-050700-
EAST CENTRAL WISCONSIN

CITY           SKY/WX    TMP DP  RH WIND       PRES   REMARKS
STURGEON BAY   PTCLDY    61  54  77 CALM      30.08R
MANITOWOC      CLEAR     59  58  96 MISG      30.04S
SHEBOYGAN      CLEAR     55  53  93 N3        30.03S
$$

LMZ563-521-522-541>543-050700-
LAKESHORE

STATION/POSITION TIME  TEMP    WIND        PRES    VSBY  WAVE
                       AIR SEA DIR/SP/G                  HT/PER
                 (UTC) (F)     (DEG/KT/KT) (MB)    (MI)  (FT/S)
SHEBOYGAN LKSHOR 0600   65     330/  6/  6 1016.9R
KEWAUNEE LKSHORE 0500   62      30/  3/  5 1016.5R
ALGOMA MARINA    0513           40/  6/  8   N/A
NORTHPORT PIER   0500   62      40/  5/  7 1017.6
N MID LAKE BUOY  0550   61 68  300/  8/ 10 1017.6R         1/ 4
SISTER BAY LKSHO 0548   59      40/  2/  5   N/A
CHAMBERS ISLAND  0500   64      30/  5/  7 1017.6R
MENOMINEE LKSHOR 0500   65      70/  6/  8 1018.3R
$$


USA.gov is the U.S. government's official web portal to all federal, state and local government web resources and services.